Location: Hurecourt
(47.9030°N, 6.0653°E)
Time: 10:40:38
(UTC+00:00)

Meteor 1-29 - Pass Details

Date: 14 July 2020
Orbit: 440 x 459 km, 97.7° (Epoch: 05 August)

Event Time Altitude Azimuth Distance (km) Brightness Sun altitude
Rises 00:54:24 0° 8° (N) 2,464 8.2 -18.6°
Reaches altitude 10° 00:56:28 10° 3° (N) 1,590 6.8 -18.5°
Maximum altitude 00:59:46 49° 288° (WNW) 592 3.4 -18.3°
Enters shadow 01:00:23 43° 251° (WSW) 652 3.4 -18.3°
